CAPE
2288 2185 2171 2122 1933 1588 1525 1330 986 1289 1660 1096 1229 1238 1201 3341 2057 1689 1689 2914 2061 1654 1880 1764 2950 2374 2994 4635 2756 2902 2504 2512 3344 2874 2615 3490 2995 2074 2081 2398 2516 2712 2907 2883 2828 2750 2605 1923 911 668 906 992 869 911 1044 896 677 649 783 1470 1669 1618 1541 1486 1899 2044 2163 2076 1930 1929 1830 1806 1830 1822
2194 1831 1686 1375 1128 1531 1777 1326 1182 1151 2156 1308 1342 1620 1885 2493 1836 1794 1488 2246 2725 2890 2220 1766 3323 2770 2645 2488 1964 2209 1856 2364 3055 2227 2758 2955 3523 2157 1908 2063 2143 2188 2438 2567 2686 2619 1868 1044 810 832 924 1049 1082 1031 962 845 1256 1677 1610 1602 1763 1355 1377 1775 1876 1953 2121 2032 1938 1927 1934 1899 1864 1650
1902 1965 1957 1914 1607 1493 1385 1309 1172 1104 1128 1031 1280 1665 1771 2129 1946 2425 1988 1233 2682 1434 2667 2078 3475 4155 2844 2136 2515 1760 1862 2535 2468 1568 1358 1689 2769 2856 2388 2378 2392 2231 2069 2174 2152 1845 1293 910 918 983 994 1212 1245 1307 1407 1580 1697 1739 1732 1718 1807 1596 1660 1971 1933 1998 2115 1980 1816 1752 1799 1818 1638 1529
1895 2013 1901 1963 2269 2370 2015 1842 1399 1191 1085 928 1182 1268 1806 2219 2316 2301 1066 617 937 1859 1283 2576 2826 2663 3538 3297 2228 2279 1922 1856 1284 1623 1926 3922 3025 2650 2588 2552 2595 2453 2126 1724 1525 1217 1067 966 1033 1093 1077 1189 1185 1237 1463 1640 1768 1776 1775 1771 1604 1399 1781 1865 1910 1984 2098 1922 1772 1632 1576 1728 1710 1644
1918 2248 2240 1970 2151 2350 1755 1609 1352 1214 982 1118 1357 844 1255 1622 2310 2074 1364 949 904 2068 2150 2326 3041 2966 1807 2386 2317 3157 2468 1605 2020 1528 2008 2743 3333 3448 3108 2695 2585 2441 2201 1743 1229 1012 928 984 934 1076 1226 1303 1226 1326 1359 1493 1698 1716 1838 1832 1774 1997 1860 1813 1908 2048 2051 1839 1728 1626 1666 1729 1673 1530
2106 2018 2353 2307 1687 2138 2302 1695 1450 1202 1025 1836 1384 1222 1967 1514 2104 1599 1975 1886 1950 1602 3034 2670 3012 2391 1987 2314 2193 2324 2955 2475 2306 2292 2200 1934 2630 3523 3901 3962 2486 2212 2147 2119 1868 1739 1492 1208 1095 1143 1268 1396 1341 1332 1372 1391 1712 1927 1971 1927 1839 1646 1503 1513 1758 1875 1795 1702 1483 1496 1547 1506 1473 1440
2335 2320 2477 2240 2266 2195 2041 1670 1536 1618 1389 1574 1476 1827 1427 1861 1504 2283 1989 2339 1876 1587 2743 2549 2151 2571 2560 2571 3116 2571 2483 2826 2347 1975 2106 2328 3065 3425 3355 2794 2754 2012 1724 1850 1918 1822 1776 1886 1740 1258 1210 1268 1382 1413 1549 1683 1552 1453 1426 1517 1522 1438 1326 1317 1300 1445 1534 1480 1388 1338 1432 1396 1395 1325
2158 2376 2426 2018 2054 2171 2228 2092 1759 1715 1537 1875 1998 1965 1472 2203 1975 1618 1782 2124 1756 1749 2542 2435 2046 2757 3109 2820 2462 1896 1835 2345 2582 2356 2555 3197 3034 2958 2362 2967 2834 2195 1981 1938 1802 1770 1955 2071 1979 1702 1406 1034 1265 1275 1114 990 1011 1124 1144 1282 1328 1256 1037 1012 1110 1108 1145 1331 1391 1426 1356 1377 1313 1272
2540 2517 2614 2551 2656 2626 2548 2287 1493 1332 1524 1547 1850 1629 1824 2222 1791 1433 2208 2722 2483 2568 2088 2296 2275 2502 2581 3078 2540 1696 1790 2638 2605 2711 2773 3018 2530 2563 2482 2283 1952 1709 1713 1671 1954 2095 2124 2065 1881 1761 1684 1584 1306 986 844 704 563 573 864 1083 1123 1078 975 827 791 837 834 858 949 1101 1176 1174 1179 1106
1675 1333 1924 2137 2710 2696 2685 2270 1723 2110 2246 2080 2030 1758 2150 2996 2460 2460 2235 2478 2320 2300 2344 2200 2216 1880 2462 2639 2819 2095 1795 2226 2673 2883 2545 2372 2856 2830 2453 2357 1971 1542 1595 1776 1924 2000 1987 1916 1818 1714 1546 1450 1438 1283 1045 947 864 774 680 814 1003 950 899 741 695 665 585 555 667 723 835 726 614 651
964 1583 1680 1366 2065 2576 2550 2322 2292 2292 2359 2779 1686 1654 2232 2264 2632 2256 2363 2008 2398 2292 2003 1840 1625 1761 2409 2276 2394 2379 1857 2118 2215 2568 2805 2612 2532 2735 2837 2790 2350 1910 1646 1561 1843 2022 1994 1876 1746 1671 1582 1443 1312 1268 1180 1160 1172 1043 869 772 747 918 842 627 607 643 603 714 719 647 627 572 506 437
1665 1892 1656 2046 2226 1839 1546 1858 2298 2653 2747 2488 1966 1785 1681 1836 2378 2274 2128 2064 2357 2380 1745 1451 1481 1429 2026 2004 2367 2252 1928 1665 1961 2179 2402 2298 2526 2573 2445 2185 2353 2358 2135 2315 2141 1873 1712 1711 1719 1706 1580 1483 1442 1372 1312 1262 1286 1266 1207 1058 852 810 797 768 766 772 779 688 574 468 118 110 0 4
1820 2025 1805 1925 1907 1895 1697 1803 2350 2352 2639 2430 2594 2146 1917 1754 2339 2687 2551 2077 2021 2186 2104 2260 1587 1281 1585 2105 2260 2016 2081 1907 2270 2695 1785 1685 1702 2275 2219 2288 1913 1855 1808 1941 2137 2257 1671 1667 1668 1638 1605 1538 1521 1476 1333 1186 1094 1144 1185 1164 1054 991 935 882 840 785 763 802 726 591 549 572 574 349
1330 1541 1466 1894 2092 2220 2033 1954 2111 2122 2253 2530 2108 1714 2057 2421 2387 2642 2427 2159 2036 1894 1774 1816 1686 1645 1678 1886 2113 2133 2238 2036 1949 1448 1328 1375 1282 1927 1901 2185 2404 2280 2021 1956 2134 2279 2127 2098 2108 1862 1818 1752 1690 1635 1446 1380 1240 1092 1038 1054 1100 1057 1005 946 892 848 878 905 817 757 681 618 644 676
1420 1682 2056 1630 1308 1377 1304 1516 1704 1732 1875 1867 1839 1975 2250 2224 2720 2663 2403 2367 1877 1804 1780 1710 1671 1460 1560 1782 2144 2229 2052 2077 1548 1614 1503 1337 1558 1470 1642 1616 2806 3000 2528 1948 2024 2196 2278 1952 2078 2277 2258 2526 2145 1762 1661 1504 1473 1403 1165 1030 1003 1027 1055 1066 1032 1034 951 991 1016 948 890 833 754 732
1111 1614 1739 1503 1134 968 982 1175 1491 1642 1520 1412 2577 2752 2707 2588 2448 2464 2430 2419 2143 1932 1693 1373 1501 1278 1047 1228 1723 1967 1843 1788 1905 1186 1232 1452 1609 1744 1556 1482 1725 2970 2478 2360 2133 2107 2615 2290 2049 2138 1852 1377 1425 1538 1514 1520 1538 1462 1320 1201 1053 961 864 835 856 916 1046 1034 974 942 952 981 1017 1019
1892 2221 1623 1182 1187 1348 1365 1463 1523 1407 1673 2080 2540 2569 2195 2198 2159 2119 2067 1947 2076 2140 1655 1580 1531 1287 936 1079 1583 1915 1766 1799 1388 1438 1067 1271 1592 1936 1726 1867 1972 2400 2424 2323 2119 1774 2041 2396 2109 2068 1528 1281 1369 1425 1418 1450 1422 1373 1222 1099 954 820 747 694 614 624 856 1043 1040 990 956 946 898 882
1908 1887 1487 972 952 798 1197 1591 1430 1354 1321 2227 2521 2455 2289 2200 2048 1856 1808 1648 1760 1862 1759 1716 1610 1851 1184 1082 1531 1716 1849 1627 1352 1376 1048 1251 1638 1565 1585 1877 2177 2140 1967 1990 1872 1706 1874 2153 2021 1746 1643 1444 1370 1245 1245 1255 1264 1184 1051 902 733 685 615 574 546 557 583 622 650 680 714 767 790 841
1981 1352 1013 795 964 1324 1294 1274 1176 1372 1703 2099 2084 1818 1635 1611 1994 1789 1373 1272 1462 1859 1895 1809 1830 1598 1898 1465 1270 1588 1866 1956 1993 1720 1506 1293 1284 1301 1838 1905 1867 1630 1518 1874 1552 1443 1792 2012 2066 1624 1354 1359 1214 1101 1146 1086 1005 950 860 716 560 434 380 343 318 276 248 231 220 0 463 499 518 655
1776 1397 1178 1011 1284 1244 1675 1970 1835 1841 1945 1716 1673 1579 1426 1526 1774 1811 1742 1671 1801 2141 2143 1800 1421 1170 1107 1132 1874 2176 2233 1897 1772 1653 1961 2017 2078 2086 1721 1401 2006 1852 1691 1962 1657 1498 1884 2372 1755 1383 1221 1124 974 888 843 790 614 620 601 558 535 514 469 301 0 0 0 0 62 392 436 426 405 354
1424 1023 940 1171 1420 1874 1593 1757 1334 1116 1168 1415 1570 1166 1081 1215 1545 2033 2141 1404 994 968 1249 1324 1360 899 872 789 582 555 597 496 1459 1267 1240 1350 1583 1765 1351 1238 1567 1820 1520 2252 2131 1801 1448 1466 1421 1061 1048 1014 942 773 464 0 0 0 0 0 0 292 317 299 0 0 0 0 0 0 0 0 0 0
1512 1283 1686 1694 1682 1808 1218 1196 1109 981 769 1188 1396 1336 1092 884 1555 1993 1909 1173 835 1085 1164 1334 1220 916 488 64 0 0 0 0 44 345 374 313 833 1521 1458 1282 1406 1903 1305 2078 2017 1603 1606 1843 1926 1376 890 702 602 493 416 174 0 0 0 0 0 0 0 0 0 0 0 0 0 0 0 0 0 0
1255 821 1390 1466 1532 1298 1031 1009 904 725 864 1004 846 839 956 967 1126 1824 1976 1531 1039 954 879 746 515 189 36 52 173 240 17 1 236 583 615 915 814 882 1042 1397 1462 1071 1514 2111 1981 1723 1782 1646 1440 1334 834 760 590 606 395 107 0 0 0 0 0 0 0 0 0 0 0 0 0 0 0 0 0 0
975 1044 1013 936 895 895 861 774 632 557 533 550 529 510 692 740 960 684 1138 1474 1177 1006 1075 1221 1169 1238 1102 845 816 1107 1201 512 567 382 698 1020 1258 1096 957 920 896 770 1497 1641 2314 2187 1629 1440 1404 1012 1294 1029 528 401 318 296 0 0 0 0 0 0 0 0 0 0 0 0 0 0 0 0 0 0
816 816 793 674 598 526 527 483 442 418 433 430 397 362 362 930 516 420 899 1383 885 1078 1014 1084 1088 472 224 201 169 196 454 1270 1095 1033 1039 1302 987 930 931 1002 1070 1074 1422 1148 998 1996 1508 1345 1037 792 1131 624 912 541 430 244 2 0 0 0 0 0 0 0 0 0 0 0 0 2 1 0 0 0
534 580 567 434 403 386 336 282 246 237 221 172 1 325 335 302 204 393 327 267 435 490 530 406 369 270 179 157 146 214 289 961 877 830 780 774 811 606 771 760 834 919 1097 968 648 1415 1214 1149 1007 1024 1177 660 922 704 496 396 124 4 0 0 0 0 0 0 0 0 0 0 0 0 0 0 0 0
827 663 313 268 260 268 246 222 153 89 0 0 37 0 103 271 248 0 110 258 286 605 486 595 343 295 201 314 709 1044 630 535 525 499 392 470 348 346 338 429 491 746 1294 894 651 911 804 760 826 729 814 805 764 750 639 620 350 152 123 39 0 0 0 0 0 0 0 0 0 0 0 0 1 1
602 362 297 237 214 188 69 30 0 0 0 0 0 0 0 0 0 8 143 296 360 289 194 208 203 410 589 744 721 682 622 412 401 247 265 316 272 327 657 346 316 79 17 517 747 413 359 426 469 574 571 627 615 537 536 802 366 258 21 0 0 0 0 0 0 0 0 0 0 0 0 0 0 2
170 178 214 192 81 172 163 0 0 0 0 0 0 0 0 1 10 33 178 556 383 306 171 215 425 464 675 527 444 448 487 460 243 269 251 167 135 215 189 285 313 404 18 193 329 298 241 335 248 258 333 350 225 299 297 476 440 190 100 0 0 0 0 0 0 0 0 0 0 0 0 1 1 1
218 191 178 175 188 64 0 0 0 0 2 0 0 0 0 0 7 78 254 303 286 305 314 284 378 509 426 399 379 385 325 271 404 178 268 228 217 114 165 255 250 187 226 101 38 96 122 168 224 149 214 247 94 9 38 78 114 312 122 45 3 3 1 1 0 0 0 0 0 0 0 2 0 0
173 142 38 0 0 0 0 4 21 13 46 0 0 0 0 1 17 284 181 190 192 185 208 263 313 344 354 340 334 394 314 256 395 277 355 214 223 180 221 234 294 294 367 15 28 44 5 52 86 95 91 120 97 130 177 176 98 106 77 19 3 2 0 0 0 0 0 0 0 1 6 5 1 0
5 4 0 0 2 7 3 0 0 50 109 5 6 5 13 9 48 74 11 6 79 169 348 364 455 313 333 296 311 271 311 280 323 353 288 237 214 150 179 123 188 150 286 96 56 22 2 3 26 23 37 36 21 12 4 16 48 50 118 22 6 3 2 1 0 0 0 0 1 1 5 5 1 0
32 13 7 11 11 16 13 12 5 27 125 88 47 59 104 90 135 34 40 35 88 233 288 377 428 374 289 254 223 196 196 283 233 239 316 234 160 266 169 107 66 77 104 238 66 30 4 29 13 5 3 6 8 7 0 0 1 7 16 27 0 1 2 2 1 0 2 2 0 0 5 4 1 1
71 45 7 11 6 34 46 25 31 59 94 98 111 155 159 180 58 26 7 0 2 93 245 283 285 275 283 318 234 152 135 343 242 322 137 194 171 188 153 120 90 142 91 108 119 30 25 15 18 16 13 15 9 4 4 0 0 4 17 7 9 7 4 3 4 2 2 2 2 0 0 3 2 2
78 43 53 27 42 49 48 60 54 86 124 162 193 193 232 166 93 16 2 6 70 52 22 77 159 207 202 210 241 178 156 126 139 164 111 119 180 139 82 64 65 177 119 20 31 118 16 25 24 24 24 19 2 0 0 0 0 0 12 32 14 10 7 4 5 6 6 6 3 2 6 6 3 2
50 72 70 55 46 58 84 94 103 111 149 219 196 83 28 1 0 7 10 82 70 16 0 17 34 90 92 99 109 121 174 135 127 118 138 77 72 80 53 34 44 173 66 16 13 46 20 16 13 12 8 3 2 0 1 0 0 2 37 17 10 8 9 13 7 6 6 6 4 2 2 5 5 2
10 68 159 117 109 103 96 104 116 192 86 77 50 78 80 7 3 12 10 52 38 2 3 2 4 8 23 42 105 103 117 116 76 100 73 71 57 48 37 45 40 40 13 12 17 20 10 12 10 8 9 1 0 0 85 15 1 0 6 26 26 10 17 13 10 10 10 5 1 1 2 7 7 9
16 58 215 263 282 283 90 122 158 222 257 164 65 56 127 136 48 49 261 66 39 16 11 22 24 13 10 34 60 54 22 13 1 0 0 2 43 28 14 0 0 2 0 0 0 5 2 1 1 1 5 2 0 0 46 6 10 2 0 5 11 19 2 0 0 0 1 0 0 0 0 0 0 5
8 27 120 352 434 506 424 191 214 161 133 188 281 206 139 150 339 145 137 140 74 19 22 67 70 86 149 69 5 38 18 2 1 0 0 10 42 17 0 0 0 3 0 0 0 0 0 0 0 0 0 0 0 0 0 0 2 25 5 0 0 7 0 0 0 0 0 0 0 0 0 2 0 0
0 3 36 227 605 677 544 612 622 651 404 291 294 501 400 181 369 208 345 226 356 113 58 80 35 62 181 115 89 41 24 4 15 32 22 0 6 0 0 0 0 50 96 0 0 0 0 0 0 0 0 0 0 0 0 0 0 0 0 0 0 0 0 0 0 0 0 0 0 0 0 0 0 0
74 42 107 222 414 781 742 581 521 507 693 919 635 625 507 1153 907 530 601 462 235 173 85 124 185 275 179 113 96 41 55 57 40 2 0 0 20 0 0 60 12 0 0 0 0 0 0 0 0 0 14 0 0 0 0 0 0 0 0 0 0 0 0 0 1 0 0 0 0 0 0 0 0 0
440 359 249 273 345 304 906 938 530 459 495 826 804 705 754 1000 908 444 844 849 694 352 202 159 154 233 273 273 113 26 14 94 36 0 3 11 0 0 0 0 0 0 0 0 0 113 646 7 22 1 0 3 15 0 0 0 0 0 18 3 0 0 0 0 0 0 4 0 0 0 0 0 0 0
717 661 733 576 570 874 1017 1120 1061 911 819 854 712 999 823 472 544 547 499 777 818 429 342 397 352 246 267 247 185 168 44 1 39 107 4 0 6 41 0 0 0 0 0 0 2 347 89 56 2 0 0 0 0 0 0 0 0 0 4 1 0 0 0 0 0 0 0 0 0 0 0 0 1 1
771 1116 1026 1256 1273 1371 1256 1124 1326 1418 1044 809 1266 1119 738 836 640 506 498 452 640 486 391 345 288 198 195 370 367 252 205 75 19 60 134 124 74 34 11 4 0 0 18 0 2 146 20 9 1 0 0 0 0 0 0 0 0 0 0 5 117 4 0 0 0 0 0 0 0 0 0 0 0 0
843 1313 1522 1884 1292 1199 1282 1051 788 602 497 528 542 645 808 632 557 576 704 533 310 244 367 373 317 325 229 226 454 324 287 209 190 178 185 109 32 32 3 6 25 36 59 117 126 78 250 139 18 11 4 0 0 0 0 0 0 0 0 0 2 81 15 4 0 0 0 0 0 0 0 1 1 0
Wind_Speed
6 6 4 4 4 4 4 3 3 5 7 6 5 4 3 10 9 6 6 6 6 8 8 6 6 2 3 4 5 5 7 8 17 13 9 11 13 17 19 19 18 17 17 15 16 14 13 12 11 10 9 9 8 8 7 8 8 8 7 8 7 7 7 7 7 10 11 12 12 12 11 10 10 10
8 5 5 5 5 6 6 5 3 7 10 8 6 7 8 12 11 9 6 6 6 6 7 6 9 5 4 10 9 3 8 6 10 8 3 10 16 21 23 21 21 20 19 19 17 17 16 15 14 13 12 11 10 10 10 9 9 8 7 7 7 7 7 7 9 12 15 15 14 13 12 12 12 11
7 8 7 7 6 6 5 6 5 6 8 8 7 9 11 11 11 11 14 9 9 10 6 4 6 7 8 10 11 9 6 8 9 10 9 4 9 22 21 23 23 22 22 21 20 20 19 18 17 16 15 13 12 12 11 10 9 8 8 8 8 8 8 9 12 13 15 15 15 13 13 13 12 13
8 8 7 7 7 7 7 6 5 6 7 7 8 10 13 12 15 16 15 10 6 9 5 5 7 10 12 13 12 12 10 10 15 12 8 8 8 16 13 19 21 21 22 22 22 21 21 21 19 18 17 16 14 13 12 11 10 9 8 8 8 8 10 11 13 14 15 16 15 14 13 13 14 14
7 8 7 7 7 9 6 6 6 7 7 12 17 17 10 13 16 15 15 12 7 8 9 7 11 11 13 15 12 13 12 11 14 15 12 10 12 14 16 15 17 19 19 20 20 21 21 21 21 20 19 17 16 14 13 12 11 11 10 9 9 11 13 15 16 17 18 16 15 13 13 14 14 14
8 7 7 7 6 8 7 6 6 8 11 16 15 16 14 11 15 16 15 12 12 8 11 12 13 15 13 14 15 16 15 13 14 15 15 12 9 10 14 15 16 18 18 19 20 20 19 19 20 20 20 18 17 16 15 14 13 13 15 15 15 17 18 19 19 19 18 16 15 14 15 15 14 14
9 7 7 6 8 8 7 8 8 9 11 15 17 16 11 9 15 18 16 15 11 10 12 13 13 15 14 14 16 17 17 16 15 16 15 14 11 13 15 18 16 19 20 20 21 21 20 19 18 18 19 19 18 17 17 16 17 17 18 20 20 19 19 19 19 19 18 17 16 15 16 16 15 15
11 9 8 7 8 9 10 9 10 12 13 15 18 14 11 13 17 18 18 17 15 12 12 14 15 15 14 14 17 19 18 17 17 17 16 16 12 12 16 18 17 18 19 18 18 20 21 21 19 18 19 19 19 19 19 19 19 18 19 21 21 20 19 19 19 19 19 18 18 17 17 18 19 19
16 12 11 10 10 11 11 9 12 10 10 17 17 14 14 16 17 17 19 17 16 16 14 15 16 16 14 16 17 19 19 18 17 18 17 15 13 13 18 18 15 16 18 17 16 18 19 20 19 18 19 19 20 20 21 21 21 20 20 21 21 21 20 20 20 19 19 19 20 20 21 22 23 22
22 19 11 13 13 12 11 10 12 12 14 22 16 15 15 16 17 18 18 19 16 15 15 16 18 15 13 16 17 18 18 18 18 18 17 16 16 15 18 21 18 18 21 21 18 17 16 16 16 16 17 19 19 20 22 22 22 21 21 21 21 22 22 21 21 20 20 20 20 21 21 22 22 23
19 18 20 17 14 14 13 13 14 12 15 20 20 16 15 15 15 17 19 18 17 16 14 17 16 15 14 15 17 19 19 19 19 18 17 16 16 16 18 20 21 20 20 18 18 18 20 19 19 18 18 19 20 21 22 22 22 22 22 22 22 22 22 21 21 21 21 21 21 21 21 22 22 23
22 20 19 20 22 22 16 14 13 14 16 18 17 17 18 13 14 17 19 19 18 18 16 16 17 16 16 16 16 19 20 19 20 18 18 16 16 15 16 17 20 20 19 18 17 17 20 19 19 19 20 21 21 22 22 22 23 24 24 24 24 23 23 22 22 22 22 22 22 22 22 21 nan nan
22 24 23 20 19 18 16 10 11 13 15 18 17 19 18 14 15 18 19 20 19 18 16 16 19 16 16 17 18 18 18 19 23 23 21 17 14 15 14 14 17 17 17 16 16 17 18 20 22 23 22 22 21 20 21 21 23 24 25 26 26 25 25 24 23 23 22 22 23 24 25 25 25 24
23 23 25 22 16 14 16 16 12 12 13 15 19 19 16 16 16 18 19 19 18 18 17 16 17 16 16 18 18 18 19 21 23 23 21 16 13 13 12 12 15 16 15 15 15 17 19 20 22 24 22 22 24 21 23 22 24 26 26 27 27 27 26 25 24 23 24 24 24 25 26 27 27 26
25 23 24 25 21 21 20 19 17 16 13 13 12 11 13 16 17 18 17 18 19 19 17 17 16 17 17 18 19 18 19 20 21 21 20 16 14 13 13 11 15 16 17 16 16 16 19 21 22 23 23 23 24 23 22 21 25 28 29 28 27 26 26 25 25 25 24 24 24 25 26 26 27 27
25 24 25 25 24 25 26 24 20 16 12 10 12 13 12 12 11 13 15 17 19 18 17 17 16 18 18 17 18 17 18 19 21 20 17 14 13 14 14 12 11 15 17 16 16 16 19 22 22 23 24 24 24 23 24 25 28 29 30 30 29 27 26 25 25 25 25 25 25 25 25 25 25 25
26 28 28 24 22 25 21 20 19 18 16 13 13 12 11 10 11 14 13 13 14 18 17 16 17 19 18 17 16 18 19 20 18 17 15 13 13 13 12 11 11 14 16 17 16 16 18 22 22 23 24 25 26 26 25 27 30 30 31 30 29 27 26 25 25 25 24 24 24 24 24 24 23 23
29 29 27 25 23 25 24 22 20 19 15 18 18 18 17 16 12 13 16 13 11 12 14 15 16 21 22 19 17 18 19 18 15 14 11 11 11 11 12 13 13 14 16 16 17 17 18 21 22 23 24 25 25 25 26 29 28 29 29 29 28 27 26 25 26 26 26 26 25 26 25 25 25 24
31 29 27 26 25 23 22 21 20 19 19 20 19 20 18 16 18 18 17 16 16 16 16 15 15 19 22 20 17 17 18 16 15 14 14 13 9 9 10 13 15 14 17 17 21 17 18 21 23 23 25 24 25 24 25 28 28 28 27 26 26 26 26 26 26 26 26 25 26 nan 26 26 25 25
33 31 29 28 26 22 21 20 21 22 23 21 21 19 17 16 18 17 17 18 18 18 18 18 20 20 19 18 19 18 17 15 15 13 12 13 12 12 13 13 16 15 18 21 21 18 17 21 23 23 23 25 25 25 24 26 29 29 28 27 26 25 26 25 nan nan nan nan nan 27 28 27 26 25
33 32 28 27 26 24 26 31 31 28 23 22 20 18 15 16 17 18 20 21 18 22 26 24 22 21 20 17 18 17 14 14 14 14 13 12 13 14 13 13 15 15 18 22 22 20 17 19 21 24 23 22 23 24 25 nan nan nan nan nan nan 26 26 27 nan nan nan nan nan nan nan nan nan nan
32 31 27 26 26 27 32 35 33 28 24 21 19 17 16 15 15 15 20 21 22 22 21 21 21 20 19 nan nan nan nan nan nan 16 14 13 12 12 15 14 16 17 17 20 26 25 21 22 22 25 24 23 21 24 26 25 nan nan nan nan nan nan nan nan nan nan nan nan nan nan nan nan nan nan
33 33 29 25 26 29 34 36 34 29 24 21 19 18 18 16 15 19 19 20 22 19 17 17 18 17 nan nan 15 12 nan nan 17 16 14 14 13 13 14 15 16 16 18 21 28 26 23 25 24 25 25 22 22 23 28 27 nan nan nan nan nan nan nan nan nan nan nan nan nan nan nan nan nan nan
37 35 32 33 36 38 36 35 33 31 28 24 21 20 19 16 17 19 18 20 19 17 15 16 16 15 17 16 15 14 15 17 18 18 17 16 15 14 14 15 17 17 21 22 22 24 23 23 25 25 25 23 23 24 27 27 nan nan nan nan nan nan nan nan nan nan nan nan nan nan nan nan nan nan
37 35 34 38 38 39 38 35 31 29 27 22 19 18 17 20 19 17 18 18 17 16 15 14 15 16 17 15 14 14 16 21 21 20 18 19 19 17 17 17 19 21 26 24 24 26 25 25 24 27 26 26 24 25 24 26 nan nan nan nan nan nan nan nan nan nan nan nan nan nan nan nan nan nan
30 34 37 36 34 36 35 32 28 27 24 21 nan 21 22 18 18 18 19 18 18 16 15 14 13 16 17 16 15 17 19 23 24 22 21 20 20 20 19 19 21 22 27 26 25 27 26 26 25 26 26 26 24 25 26 25 28 nan nan nan nan nan nan nan nan nan nan nan nan nan nan nan nan nan
29 32 35 35 33 32 32 28 25 nan nan nan nan nan 16 15 15 nan 15 14 14 15 15 17 18 18 17 16 18 23 24 23 22 21 21 20 21 22 21 21 23 23 26 27 27 27 27 25 24 24 24 25 24 25 23 26 28 30 30 nan nan nan nan nan nan nan nan nan nan nan nan nan nan nan
27 30 30 29 31 31 nan nan nan nan nan nan nan nan nan nan nan nan 13 12 15 15 14 16 16 15 17 19 21 22 22 22 20 21 21 21 21 22 23 24 24 nan nan 23 26 25 27 24 23 24 25 25 24 23 24 26 30 30 nan nan nan nan nan nan nan nan nan nan nan nan nan nan nan nan
31 32 33 31 nan 28 26 nan nan nan nan nan nan nan nan nan nan nan 11 11 15 15 15 15 16 18 21 22 21 21 21 22 21 20 21 22 22 22 22 22 22 23 nan 22 24 26 25 24 23 23 24 26 25 24 24 24 27 29 29 nan nan nan nan nan nan nan nan nan nan nan nan nan nan nan
32 32 31 28 26 nan nan nan nan nan nan nan nan nan nan nan nan nan 11 15 16 16 15 15 17 20 21 20 20 20 20 20 21 21 22 22 23 23 22 21 22 21 22 24 nan nan 24 23 24 23 22 24 nan nan nan nan 23 27 28 nan nan nan nan nan nan nan nan nan nan nan nan nan nan nan
25 24 nan nan nan nan nan nan nan nan nan nan nan nan nan nan nan 11 17 17 17 16 16 16 18 20 21 20 19 20 21 20 20 21 21 21 21 23 23 23 21 22 25 nan nan nan nan nan nan nan nan 22 nan 24 25 25 nan 25 nan nan nan nan nan nan nan nan nan nan nan nan nan nan nan nan
nan nan nan nan nan nan nan nan nan nan 9 nan nan nan nan nan nan nan nan nan nan 16 16 17 20 21 21 19 19 20 21 20 21 21 20 20 22 22 22 23 22 22 24 nan nan nan nan nan nan nan nan nan nan nan nan nan nan nan 28 nan nan nan nan nan nan nan nan nan nan nan nan nan nan nan
nan nan nan nan nan nan nan nan nan nan 8 nan nan nan 10 nan 16 nan nan nan nan 17 17 18 18 21 19 19 22 20 20 20 21 22 21 22 20 21 22 20 nan nan 22 25 nan nan nan nan nan nan nan nan nan nan nan nan nan nan nan nan nan nan nan nan nan nan nan nan nan nan nan nan nan nan
nan nan nan nan nan nan nan nan nan nan nan nan 10 11 13 13 nan nan nan nan nan nan 17 19 18 18 19 20 19 19 19 22 21 23 23 21 22 21 21 21 nan 21 nan 24 27 nan nan nan nan nan nan nan nan nan nan nan nan nan nan nan nan nan nan nan nan nan nan nan nan nan nan nan nan nan
nan nan nan nan nan nan nan nan nan nan 10 12 12 12 13 12 nan nan nan nan nan nan nan nan 17 18 18 18 20 19 20 21 21 23 23 22 23 22 nan nan nan 23 26 nan nan 30 nan nan nan nan nan nan nan nan nan nan nan nan nan nan nan nan nan nan nan nan nan nan nan nan nan nan nan nan
nan nan nan nan nan nan nan nan 9 10 11 12 12 nan nan nan nan nan nan nan nan nan nan nan nan nan nan nan 19 20 21 22 21 23 24 nan nan nan nan nan nan 27 nan nan nan nan nan nan nan nan nan nan nan nan nan nan nan nan nan nan nan nan nan nan nan nan nan nan nan nan nan nan nan nan
nan nan 10 9 9 10 nan 10 9 10 nan nan nan nan nan nan nan nan nan nan nan nan nan nan nan nan nan nan 21 21 21 24 nan 23 nan nan nan nan nan nan nan nan nan nan nan nan nan nan nan nan nan nan nan nan nan nan nan nan nan nan nan nan nan nan nan nan nan nan nan nan nan nan nan nan
nan nan 11 10 10 11 nan 11 12 10 11 12 nan nan 11 15 nan nan 20 nan nan nan nan nan nan nan nan nan nan nan nan nan nan nan nan nan nan nan nan nan nan nan nan nan nan nan nan nan nan nan nan nan nan nan nan nan nan nan nan nan nan nan nan nan nan nan nan nan nan nan nan nan nan nan
nan nan 12 11 11 11 12 12 13 13 12 11 11 13 14 13 20 22 21 21 nan nan nan nan nan nan 20 nan nan nan nan nan nan nan nan nan nan nan nan nan nan nan nan nan nan nan nan nan nan nan nan nan nan nan nan nan nan nan nan nan nan nan nan nan nan nan nan nan nan nan nan nan nan nan
nan nan nan 11 11 12 12 12 12 13 13 13 12 13 17 18 22 21 21 21 23 22 nan nan nan nan 23 25 nan nan nan nan nan nan nan nan nan nan nan nan nan nan nan nan nan nan nan nan nan nan nan nan nan nan nan nan nan nan nan nan nan nan nan nan nan nan nan nan nan nan nan nan nan nan
nan nan 10 9 11 12 13 13 13 13 14 16 16 17 18 20 21 22 21 24 25 24 nan 19 21 24 26 27 nan nan nan nan nan nan nan nan nan nan nan nan nan nan nan nan nan nan nan nan nan nan nan nan nan nan nan nan nan nan nan nan nan nan nan nan nan nan nan nan nan nan nan nan nan nan
13 12 11 10 10 11 14 16 16 15 16 18 19 21 20 22 22 25 23 25 26 25 25 24 24 23 24 27 27 nan nan nan nan nan nan nan nan nan nan nan nan nan nan nan nan 37 42 nan nan nan nan nan nan nan nan nan nan nan nan nan nan nan nan nan nan nan nan nan nan nan nan nan nan nan
15 14 14 13 12 13 15 17 19 18 18 19 20 22 22 22 20 22 22 22 25 25 25 25 25 25 25 27 28 29 nan nan nan 31 nan nan nan nan nan nan nan nan nan nan nan 48 nan nan nan nan nan nan nan nan nan nan nan nan nan nan nan nan nan nan nan nan nan nan nan nan nan nan nan nan
17 17 17 18 17 18 20 21 22 22 22 22 22 23 22 22 23 23 23 23 25 26 25 25 25 25 25 26 30 31 31 nan nan nan 36 37 nan nan nan nan nan nan nan nan nan 52 nan nan nan nan nan nan nan nan nan nan nan nan nan nan 50 nan nan nan nan nan nan nan nan nan nan nan nan nan
19 20 22 21 21 22 22 23 22 23 24 23 22 22 24 24 23 24 25 26 25 25 27 27 26 28 29 29 31 33 34 36 37 39 41 41 nan nan nan nan nan nan nan 46 44 nan 52 51 nan nan nan nan nan nan nan nan nan nan nan nan nan nan nan nan nan nan nan nan nan nan nan nan nan nan
Wind_Direction
271 283 291 275 262 258 247 244 268 279 271 265 258 284 277 265 257 244 225 227 218 252 259 249 250 285 212 247 262 273 255 340 334 325 326 317 325 342 348 346 344 345 344 346 350 347 347 338 338 340 339 340 340 339 337 339 345 356 4 14 16 8 6 354 325 321 325 325 322 325 333 337 334 331
275 278 268 270 277 281 278 265 264 280 282 278 272 262 253 269 272 264 253 230 246 241 219 241 260 221 261 255 246 256 295 290 285 268 308 317 322 339 345 345 342 340 339 338 336 336 333 334 334 333 331 333 334 336 338 339 346 353 357 355 353 353 342 320 305 307 314 317 317 320 325 328 326 327
266 268 272 266 260 249 242 254 268 268 263 275 283 282 271 267 265 263 250 229 236 243 237 252 277 292 272 263 279 277 272 276 270 282 282 294 325 336 342 344 340 337 339 336 333 330 333 334 333 331 330 330 331 332 334 336 338 339 337 336 338 335 326 311 303 304 313 315 316 318 320 323 324 323
273 276 282 278 270 267 259 253 250 253 255 261 270 273 275 266 264 265 270 281 280 264 296 320 295 295 293 298 292 293 289 300 302 295 278 275 291 319 322 338 337 338 337 335 332 332 331 334 335 335 332 331 331 329 326 327 326 326 326 326 326 322 311 307 306 308 312 314 315 316 317 319 320 320
264 271 271 265 256 256 255 262 259 256 258 252 249 245 243 266 268 272 279 289 281 281 291 286 283 272 278 282 287 290 289 284 287 285 277 273 291 313 317 320 334 332 329 330 331 331 332 332 335 335 333 331 329 326 323 322 319 317 315 314 309 289 288 296 303 308 311 312 312 311 312 313 314 313
261 263 267 268 264 259 256 248 258 260 258 267 263 267 256 242 266 272 271 275 280 279 274 263 271 272 271 279 281 282 287 281 276 279 281 280 283 289 286 289 300 322 322 328 330 328 327 330 331 333 334 331 327 325 324 322 321 312 302 298 287 276 282 292 297 300 303 306 308 309 308 307 305 306
264 265 265 265 260 258 253 258 258 266 267 265 268 273 268 270 268 273 276 274 279 279 275 275 272 273 280 284 283 280 276 274 281 285 288 292 294 293 290 289 287 313 328 332 329 324 322 322 325 328 329 327 324 322 321 313 296 290 304 303 298 294 293 298 300 300 303 305 307 309 309 310 308 309
271 266 259 254 257 259 254 251 256 256 260 264 263 256 279 271 268 274 277 277 275 273 276 277 275 273 275 276 276 272 274 279 279 279 279 284 293 292 290 289 288 295 314 326 326 323 323 321 321 324 326 324 320 315 311 307 302 300 306 307 305 304 302 301 302 303 303 304 303 305 304 299 299 299
269 264 259 255 248 248 247 246 248 255 272 268 266 270 263 265 271 273 275 280 280 274 272 266 268 268 270 268 269 274 276 275 278 282 286 291 299 295 282 280 283 280 296 313 319 320 324 323 322 324 323 321 320 318 315 311 308 307 307 307 308 307 305 302 302 302 301 300 299 299 297 297 296 295
284 282 271 253 248 245 244 243 252 246 248 265 265 262 263 268 269 273 277 275 273 272 270 272 270 266 266 269 268 272 275 277 278 278 278 279 284 286 286 288 289 291 292 294 300 308 308 309 317 323 321 320 321 320 317 315 312 309 309 311 311 309 307 305 304 302 301 300 301 300 299 297 295 295
269 281 284 281 268 254 244 242 243 245 249 256 259 256 255 263 271 275 273 272 275 274 269 265 262 270 271 264 265 271 275 275 277 275 273 275 280 277 276 281 286 289 292 298 308 311 309 314 315 321 325 324 326 324 320 317 314 312 314 315 315 311 307 306 305 304 304 303 301 299 298 298 299 300
264 270 274 273 272 268 259 244 243 248 252 258 263 266 264 266 271 269 271 273 271 269 269 274 280 285 282 277 270 270 278 277 280 280 275 277 281 285 283 282 285 291 295 295 300 304 300 303 313 323 327 329 329 328 323 322 317 318 318 317 315 312 311 311 311 309 309 307 304 299 296 297 nan nan
264 261 255 258 267 272 270 262 251 248 253 260 263 261 261 266 270 271 269 271 272 273 271 273 282 283 283 282 281 279 284 289 282 279 277 284 281 290 287 286 288 290 293 295 299 304 308 309 308 308 311 315 322 322 326 315 321 321 319 318 316 317 317 317 316 314 310 307 305 307 308 308 309 308
266 262 264 261 262 253 250 248 245 250 257 273 264 260 264 264 266 268 269 270 272 272 270 272 276 281 282 285 289 290 287 282 280 282 285 289 290 288 290 283 288 297 300 299 301 299 303 310 310 311 313 311 314 311 310 312 312 317 321 318 320 321 320 317 314 311 310 311 311 311 312 313 312 313
265 257 259 263 263 258 252 255 257 253 243 249 273 282 279 273 265 266 269 270 274 274 275 273 272 277 276 276 280 287 285 284 284 281 283 290 295 302 298 289 282 292 300 303 302 306 308 311 313 312 312 303 304 302 297 306 326 319 322 323 318 315 313 314 315 315 314 314 314 315 315 316 318 319
264 260 261 261 260 262 265 263 259 263 287 301 283 280 278 278 280 273 268 270 271 277 277 277 280 280 280 278 282 286 283 280 277 275 279 291 300 299 298 295 298 294 305 308 307 310 307 311 313 312 302 297 292 289 289 286 295 300 308 310 311 313 315 315 316 316 316 318 317 317 317 318 319 320
268 267 269 266 260 258 267 267 266 262 262 271 273 272 274 274 275 271 271 273 270 272 277 277 279 282 279 279 282 281 275 270 273 276 287 296 297 293 297 304 304 305 311 309 312 314 313 315 316 311 306 303 302 299 291 289 290 294 300 304 308 310 313 315 315 316 316 314 315 315 316 317 316 316
269 270 270 270 261 259 261 269 273 271 271 267 263 260 256 257 260 269 274 279 288 281 270 271 271 277 283 282 278 278 273 276 279 283 283 279 291 304 315 308 308 308 312 319 311 313 318 319 317 314 310 305 301 299 301 295 295 296 298 301 303 306 308 310 311 311 312 313 315 316 317 317 316 315
265 267 268 270 267 264 271 274 278 278 275 269 263 260 260 259 258 260 263 267 268 270 269 265 267 266 271 277 274 267 266 267 276 284 289 297 297 294 299 306 310 315 315 311 305 317 311 311 316 312 316 313 308 309 305 302 302 302 301 303 305 307 310 310 310 311 312 313 314 nan 316 316 316 315
262 264 264 265 267 269 274 282 289 275 270 268 264 262 262 259 259 262 268 267 259 265 266 263 263 263 269 269 268 267 269 275 284 290 295 299 303 305 304 305 304 312 313 317 312 310 317 315 317 315 317 318 317 317 312 315 313 312 312 311 310 307 307 306 nan nan nan nan nan 314 315 316 315 314
264 265 264 263 266 269 266 270 268 264 266 265 267 263 259 257 257 264 267 261 258 262 266 271 279 280 285 275 269 270 270 276 273 282 288 299 303 305 299 299 304 309 307 312 319 310 316 318 315 315 318 321 319 320 317 nan nan nan nan nan nan 310 308 307 nan nan nan nan nan nan nan nan nan nan
262 263 269 268 264 264 264 267 265 264 266 265 264 264 264 266 268 267 265 258 256 261 262 272 277 280 278 nan nan nan nan nan nan 291 300 292 286 290 291 295 297 298 305 312 313 309 320 313 310 312 313 319 321 318 315 316 nan nan nan nan nan nan nan nan nan nan nan nan nan nan nan nan nan nan
261 258 255 261 261 258 263 267 263 261 263 258 257 259 257 251 249 243 261 261 261 260 263 262 261 261 nan nan 270 279 nan nan 304 295 289 276 275 282 289 293 295 301 307 301 310 315 314 310 310 311 312 321 316 313 314 316 nan nan nan nan nan nan nan nan nan nan nan nan nan nan nan nan nan nan
259 259 256 250 252 261 263 264 266 262 258 253 246 247 247 249 247 239 243 261 261 261 258 257 262 263 269 277 284 289 296 295 295 292 288 285 281 281 287 294 298 303 298 298 293 303 303 305 309 312 311 310 311 310 312 315 nan nan nan nan nan nan nan nan nan nan nan nan nan nan nan nan nan nan
250 253 253 249 252 256 256 257 257 258 259 255 253 253 246 244 246 233 239 253 267 259 264 262 263 269 267 272 277 280 281 292 291 289 288 283 282 283 286 287 291 296 295 297 296 302 305 305 307 306 308 307 306 307 310 310 nan nan nan nan nan nan nan nan nan nan nan nan nan nan nan nan nan nan
249 248 249 249 254 258 257 258 260 257 252 251 nan 248 252 246 237 235 233 233 240 242 250 258 264 271 277 278 285 292 288 279 280 280 279 283 286 286 288 293 296 297 296 300 299 300 303 304 302 303 304 304 306 306 309 311 308 nan nan nan nan nan nan nan nan nan nan nan nan nan nan nan nan nan
247 248 246 246 255 252 253 254 255 nan nan nan nan nan 250 245 234 nan 234 235 244 248 247 254 258 261 265 273 273 273 274 272 272 274 276 279 284 289 293 293 296 296 300 303 304 305 305 304 303 305 305 305 305 305 309 309 305 307 309 nan nan nan nan nan nan nan nan nan nan nan nan nan nan nan
243 246 245 246 252 250 nan nan nan nan nan nan nan nan nan nan nan nan 237 244 251 254 258 263 267 270 273 268 266 269 272 277 281 279 282 287 290 296 299 303 300 nan nan 302 304 300 298 301 302 304 302 301 303 306 305 300 305 311 nan nan nan nan nan nan nan nan nan nan nan nan nan nan nan nan
235 245 252 256 nan 248 245 nan nan nan nan nan nan nan nan nan nan nan 248 254 269 267 267 270 274 274 269 270 272 273 276 279 283 289 290 290 291 291 291 293 293 298 nan 301 301 301 301 301 301 299 300 301 301 303 302 306 305 310 311 nan nan nan nan nan nan nan nan nan nan nan nan nan nan nan
248 251 253 251 249 nan nan nan nan nan nan nan nan nan nan nan nan nan 263 260 264 268 272 272 271 271 275 276 279 281 285 288 290 290 294 294 296 295 297 299 301 301 301 294 nan nan 293 293 292 292 297 303 nan nan nan nan 304 302 303 nan nan nan nan nan nan nan nan nan nan nan nan nan nan nan
236 242 nan nan nan nan nan nan nan nan nan nan nan nan nan nan nan 255 260 261 262 267 263 265 274 278 277 278 282 286 287 286 288 292 290 295 297 298 298 294 294 298 297 nan nan nan nan nan nan nan nan 297 nan 304 303 302 nan 301 nan nan nan nan nan nan nan nan nan nan nan nan nan nan nan nan
nan nan nan nan nan nan nan nan nan nan 231 nan nan nan nan nan nan nan nan nan nan 262 265 267 269 275 279 284 285 283 286 289 288 288 291 293 290 291 292 294 297 295 293 nan nan nan nan nan nan nan nan nan nan nan nan nan nan nan 301 nan nan nan nan nan nan nan nan nan nan nan nan nan nan nan
nan nan nan nan nan nan nan nan nan nan 238 nan nan nan 264 nan 269 nan nan nan nan 274 276 276 276 280 284 282 283 288 290 290 292 292 290 289 289 289 290 294 nan nan 301 301 nan nan nan nan nan nan nan nan nan nan nan nan nan nan nan nan nan nan nan nan nan nan nan nan nan nan nan nan nan nan
nan nan nan nan nan nan nan nan nan nan nan nan 263 266 271 273 nan nan nan nan nan nan 277 275 282 284 285 286 290 292 293 293 295 297 297 292 292 293 296 300 nan 298 nan 300 305 nan nan nan nan nan nan nan nan nan nan nan nan nan nan nan nan nan nan nan nan nan nan nan nan nan nan nan nan nan
nan nan nan nan nan nan nan nan nan nan 266 272 278 282 283 284 nan nan nan nan nan nan nan nan 282 285 289 292 296 297 298 298 299 296 297 300 301 301 nan nan nan 302 303 nan nan 302 nan nan nan nan nan nan nan nan nan nan nan nan nan nan nan nan nan nan nan nan nan nan nan nan nan nan nan nan
nan nan nan nan nan nan nan nan 262 278 281 281 286 nan nan nan nan nan nan nan nan nan nan nan nan nan nan nan 299 300 299 297 297 297 299 nan nan nan nan nan nan 302 nan nan nan nan nan nan nan nan nan nan nan nan nan nan nan nan nan nan nan nan nan nan nan nan nan nan nan nan nan nan nan nan
nan nan 219 236 240 256 nan 264 259 260 nan nan nan nan nan nan nan nan nan nan nan nan nan nan nan nan nan nan 298 298 299 301 nan 302 nan nan nan nan nan nan nan nan nan nan nan nan nan nan nan nan nan nan nan nan nan nan nan nan nan nan nan nan nan nan nan nan nan nan nan nan nan nan nan nan
nan nan 215 232 243 256 nan 261 271 265 267 274 nan nan 280 289 nan nan 283 nan nan nan nan nan nan nan nan nan nan nan nan nan nan nan nan nan nan nan nan nan nan nan nan nan nan nan nan nan nan nan nan nan nan nan nan nan nan nan nan nan nan nan nan nan nan nan nan nan nan nan nan nan nan nan
nan nan 220 226 245 247 262 269 273 275 270 269 271 280 279 272 275 284 286 287 nan nan nan nan nan nan 297 nan nan nan nan nan nan nan nan nan nan nan nan nan nan nan nan nan nan nan nan nan nan nan nan nan nan nan nan nan nan nan nan nan nan nan nan nan nan nan nan nan nan nan nan nan nan nan
nan nan nan 217 235 257 250 246 253 268 279 279 269 265 273 276 277 285 285 289 287 292 nan nan nan nan 292 288 nan nan nan nan nan nan nan nan nan nan nan nan nan nan nan nan nan nan nan nan nan nan nan nan nan nan nan nan nan nan nan nan nan nan nan nan nan nan nan nan nan nan nan nan nan nan
nan nan 241 232 226 239 262 260 251 249 254 263 268 263 258 260 270 283 285 286 286 289 nan 286 285 289 290 293 nan nan nan nan nan nan nan nan nan nan nan nan nan nan nan nan nan nan nan nan nan nan nan nan nan nan nan nan nan nan nan nan nan nan nan nan nan nan nan nan nan nan nan nan nan nan
264 263 259 247 245 238 247 260 260 254 253 253 259 260 259 257 260 256 261 279 287 290 290 289 288 286 287 292 294 nan nan nan nan nan nan nan nan nan nan nan nan nan nan nan nan 298 294 nan nan nan nan nan nan nan nan nan nan nan nan nan nan nan nan nan nan nan nan nan nan nan nan nan nan nan
256 263 261 260 252 250 246 247 251 247 247 255 257 259 265 269 266 269 271 270 275 279 283 287 288 289 290 292 295 297 nan nan nan 302 nan nan nan nan nan nan nan nan nan nan nan 290 nan nan nan nan nan nan nan nan nan nan nan nan nan nan nan nan nan nan nan nan nan nan nan nan nan nan nan nan
235 253 255 254 253 253 251 242 239 245 242 241 250 261 261 266 275 276 276 277 280 282 282 284 285 285 285 287 292 294 296 nan nan nan 301 299 nan nan nan nan nan nan nan nan nan 291 nan nan nan nan nan nan nan nan nan nan nan nan nan nan 296 nan nan nan nan nan nan nan nan nan nan nan nan nan
235 236 243 249 252 252 253 254 255 252 249 247 247 253 264 267 264 267 276 282 283 281 284 286 285 287 289 290 290 292 293 297 299 300 300 300 nan nan nan nan nan nan nan 293 290 nan 293 294 nan nan nan nan nan nan nan nan nan nan nan nan nan nan nan nan nan nan nan nan nan nan nan nan nan nan